Regional Weather Roundup
Issued by NWS Green Bay, WI

Home | Current Version | Previous Version | Text Only | Print | Product List | Glossary On
Versions: 1 2 3 4 5 6 7 8 9 10 11 12 13 14 15 16 17 18 19 20 21 22 23 24 25 26 27 28 29 30 31 32 33 34 35 36 37 38 39 40 41 42 43 44 45 46 47 48 49 50
000
ASUS43 KGRB 301559
RWRGRB

NORTH-CENTRAL AND NORTHEAST WISCONSIN REGIONAL WEATHER ROUNDUP
NATIONAL WEATHER SERVICE GREEN BAY WI
1100 AM CDT TUE SEP 30 2014

WIZ005-009-010>012-018-019-301700-
NORTH CENTRAL WISCONSIN

CITY           SKY/WX    TMP DP  RH WIND       PRES   REMARKS
IRONWOOD       NOT AVBL
MANITOWISH WTR NOT AVBL
ARBOR VITAE    NOT AVBL
EAGLE RIVER    NOT AVBL
LAND O LAKES   NOT AVBL
RHINELANDER    CLOUDY    41  37  86 NE6       30.11S
PHILLIPS       CLOUDY    43  38  82 E9        30.10S
ANTIGO         NOT AVBL
TOMAHAWK       NOT AVBL
MERRILL        NOT AVBL
$$

WIZ013-073-301700-
NORTHEAST WISCONSIN

CITY           SKY/WX    TMP DP  RH WIND       PRES   REMARKS
IRON MOUNTAIN  CLOUDY    45  38  76 N9        30.11S
MARINETTE      NOT AVBL
$$

WIZ017-030-035>037-045-301700-
CENTRAL WISCONSIN

CITY           SKY/WX    TMP DP  RH WIND       PRES   REMARKS
MEDFORD        NOT AVBL
WAUSAU         CLOUDY    45  38  76 E8        30.09F
MOSINEE        CLOUDY    43  39  87 NE8       30.11F
MARSHFIELD     CLOUDY    44  39  82 E9        30.10S
WISC RAPIDS    CLOUDY    44  38  79 VRB5      30.11F
STEVENS POINT  NOT AVBL
WAUPACA        NOT AVBL
SHAWANO        CLOUDY    46  39  78 NE9       30.12S
CLINTONVILLE   CLOUDY    45  37  76 NE7       30.11S
$$

WIZ038-039-048-051-301700-
FOX VALLEY

CITY           SKY/WX    TMP DP  RH WIND       PRES   REMARKS
NWS GREEN BAY  CLOUDY    46  41  82 N10       30.10F
APPLETON       CLOUDY    45  39  81 N7        30.11S
OSHKOSH        CLOUDY    46  40  79 N9        30.09F
FOND DU LAC    CLOUDY    46  40  79 NE8       30.10S
$$

WIZ022-050-052-301700-
EAST CENTRAL WISCONSIN

CITY           SKY/WX    TMP DP  RH WIND       PRES   REMARKS
STURGEON BAY   NOT AVBL
MANITOWOC      NOT AVBL
SHEBOYGAN      NOT AVBL
$$

LMZ563-521-522-541>543-301700-
LAKESHORE

STATION/POSITION TIME  TEMP    WIND        PRES    VSBY  WAVE
                       AIR SEA DIR/SP/G                  HT/PER
                 (UTC) (F)     (DEG/KT/KT) (MB)    (MI)  (FT/S)
SHEBOYGAN LKSHOR 1500   45 54  340/ 14/ 16 1019.4S
KEWAUNEE LKSHORE 1500   46     350/  7/ 11 1018.2S
TWO RIVERS CG    1500                      1019.2   3 1/2  1
NORTHPORT PIER   1500   46     360/ 13/ 16 1019.3R
N MID LAKE BUOY  1500   47 58  360/ 14/ 17 1018.7R         3/ 4
S GREEN BAY BUOY 1500   47     VRB 12/ 16  1020.3F
CHAMBERS ISLAND  1500   46     340/ 15/ 18 1019.6S
MENOMINEE LKSHOR 1500   45     320/ 11/ 13 1020.2R
$$



USA.gov is the U.S. government's official web portal to all federal, state and local government web resources and services.